Regional Weather Roundup
Issued by NWS

Home | Current Version | Previous Version | Text Only | Print | Product List | Glossary On
Versions: 1 2 3 4 5 6 7 8 9 10 11 12 13 14 15 16 17 18 19 20 21 22 23 24 25 26 27 28 29 30 31 32 33 34 35 36 37 38 39 40 41 42 43 44 45 46 47 48 49 50
000
ASUS46 KPQR 192310
RWROR

OREGON REGIONAL WEATHER ROUNDUP
NATIONAL WEATHER SERVICE PORTLAND OR
400 PM PDT SAT AUG 19 2017

NOTE: "FAIR" INDICATES FEW OR NO CLOUDS BELOW 12,000 FEET WITH
NO SIGNIFICANT WEATHER AND/OR OBSTRUCTIONS TO VISIBILITY.

ORZ001>013-200000-
NORTHWEST OREGON


CITY           SKY/WX    TMP DP  RH WIND       PRES   REMARKS
ASTORIA        SUNNY     66  52  60 NW17G25   30.21S
NEWPORT        SUNNY     61  54  77 N20G28    30.20F
PORTLAND       MOSUNNY   78  52  40 N12       30.12F
VANCOUVER WA   SUNNY     77  53  43 NW8G20    30.11F
SCAPPOOSE      SUNNY     80  50  34 N8G18     30.12F
HILLSBORO      SUNNY     81  49  32 NW14G21   30.11F
AURORA         SUNNY     82  49  31 N10       30.12F
MCMINNVILLE    SUNNY     81  46  29 N7        30.12F
SALEM          SUNNY     81  46  29 N14G22    30.10F
CORVALLIS      SUNNY     82  41  23 N6        30.12F
EUGENE         MOSUNNY   80  41  24 N17G25    30.10F
$$

ORZ021-028-200000-
SOUTHWEST OREGON


CITY           SKY/WX    TMP DP  RH WIND       PRES   REMARKS
NORTH BEND     SUNNY     63  51  65 N33G41    30.13F
BROOKINGS      CLOUDY    80  52  37 NW14G20   29.92F
ROSEBURG       SUNNY     85  39  19 N16G28    30.04F
SEXTON SUMMIT  SUNNY     70  43  37 VRB5      30.12F
GRANTS PASS    FAIR      84  43  23 N17       30.04S
MEDFORD        SUNNY     87  49  26 N5        29.97F SMOKE
$$

ORZ014>016-041-200000-
COLUMBIA GORGE


CITY           SKY/WX    TMP DP  RH WIND       PRES   REMARKS
TROUTDALE      SUNNY     78  51  38 VRB6      30.10F
HOOD RIVER     SUNNY     79  50  36 W9G16     30.04F
THE DALLES     SUNNY     86  51  29 NW14      30.00F
$$

ORZ029>031-041-044-049-050-061>064-502-503-505>511-200000-
EASTERN OREGON


CITY           SKY/WX    TMP DP  RH WIND       PRES   REMARKS
MADRAS         SUNNY     79  36  21 NE13      30.10F
REDMOND        SUNNY     81  32  17 N12G20    30.09F
BEND           SUNNY     81  36  19 N7G15     30.12F
PRINEVILLE     SUNNY     79  32  18 N15G21    30.11S
KLAMATH FALLS  SUNNY     84  32  15 NW10      30.05F
LAKEVIEW       SUNNY    N/A N/A N/A NW8       30.08F
HERMISTON      SUNNY     84  46  26 W5        30.01F
PENDLETON      SUNNY     80  45  28 NW7       30.04F
JOHN DAY       SUNNY     81  39  21 W10G17    30.08F
MEACHAM        SUNNY     71  37  28 VRB3      30.13F
LA GRANDE      NOT AVBL
BAKER CITY     SUNNY     81  42  25 NW22      30.06F
BURNS          SUNNY     84  24  11 W8        30.06F
ROME             N/A     91  31  11 N9        30.01F
ONTARIO        SUNNY     91  37  15 NW15      29.94F
$$



USA.gov is the U.S. government's official web portal to all federal, state and local government web resources and services.